contact:dominique.lefevre@mio.osupytheas.fr, maurice.libes@osupytheas.fr, didier.mallarino@osupytheas.fr
Project:EMSO http://www.emso-fr.org/EMSO-France
Depth: 2436.0 m
Title:EMSO Ligure Ouest : Data MII capteur CSTAR
DateTime,Latitude,Longitude,Instrument_Serial,Reference_Counts,Signal_Counts,Corrected_Signal_raw_counts,Calculated_Beam_c_inverse_meters,Internal_thermistor_counts
DateTime,Latitude,Longitude,Instrument_Serial,Reference_Counts,Signal_Counts,Corrected_Signal_raw_counts,Calculated_Beam_c_inverse_meters,Internal_thermistor_counts
2019-06-26T00:02:45,42.805,6.029,CST-1368DR,8899,12455,15513,0.026,551
2019-06-26T00:05:46,42.805,6.029,CST-1368DR,8899,12454,15512,0.027,551
2019-06-26T00:08:47,42.805,6.029,CST-1368DR,8899,12454,15511,0.027,551
2019-06-26T00:11:49,42.805,6.029,CST-1368DR,8899,12454,15512,0.027,551
2019-06-26T00:14:50,42.805,6.029,CST-1368DR,8899,12452,15510,0.027,551
2019-06-26T00:17:52,42.805,6.029,CST-1368DR,8899,12454,15511,0.027,551
2019-06-26T00:20:53,42.805,6.029,CST-1368DR,8899,12454,15512,0.027,550
2019-06-26T00:23:54,42.805,6.029,CST-1368DR,8899,12452,15510,0.027,551
2019-06-26T00:26:56,42.805,6.029,CST-1368DR,8899,12453,15510,0.027,551
2019-06-26T00:29:57,42.805,6.029,CST-1368DR,8899,12452,15509,0.028,551
2019-06-26T00:32:59,42.805,6.029,CST-1368DR,8899,12454,15512,0.027,550
2019-06-26T00:36:00,42.805,6.029,CST-1368DR,8899,12451,15508,0.028,551
2019-06-26T00:39:02,42.805,6.029,CST-1368DR,8899,12453,15510,0.027,551
2019-06-26T00:42:03,42.805,6.029,CST-1368DR,8899,12454,15511,0.027,551
2019-06-26T00:45:04,42.805,6.029,CST-1368DR,8899,12450,15507,0.028,551
2019-06-26T00:48:06,42.805,6.029,CST-1368DR,8899,12454,15512,0.027,550
2019-06-26T00:51:07,42.805,6.029,CST-1368DR,8899,12453,15510,0.027,551
2019-06-26T00:54:09,42.805,6.029,CST-1368DR,8899,12453,15511,0.027,551
2019-06-26T00:57:10,42.805,6.029,CST-1368DR,8899,12455,15513,0.026,551
2019-06-26T01:00:11,42.805,6.029,CST-1368DR,8898,12454,15513,0.026,551
2019-06-26T01:03:13,42.805,6.029,CST-1368DR,8898,12454,15513,0.026,550
2019-06-26T01:06:14,42.805,6.029,CST-1368DR,8898,12453,15512,0.027,551
2019-06-26T01:09:16,42.805,6.029,CST-1368DR,8898,12453,15512,0.027,551
2019-06-26T01:12:17,42.805,6.029,CST-1368DR,8898,12454,15513,0.026,551
2019-06-26T01:15:18,42.805,6.029,CST-1368DR,8898,12454,15513,0.026,551
2019-06-26T01:18:20,42.805,6.029,CST-1368DR,8898,12454,15513,0.026,551
2019-06-26T01:21:21,42.805,6.029,CST-1368DR,8898,12452,15511,0.027,551
2019-06-26T01:24:23,42.805,6.029,CST-1368DR,8898,12451,15510,0.027,551
2019-06-26T01:27:24,42.805,6.029,CST-1368DR,8898,12453,15511,0.027,551
2019-06-26T01:30:25,42.805,6.029,CST-1368DR,8898,12452,15510,0.027,551
2019-06-26T01:33:27,42.805,6.029,CST-1368DR,8898,12453,15511,0.027,551
2019-06-26T01:36:28,42.805,6.029,CST-1368DR,8898,12452,15511,0.027,551
2019-06-26T01:39:30,42.805,6.029,CST-1368DR,8898,12450,15508,0.028,551
2019-06-26T01:42:31,42.805,6.029,CST-1368DR,8898,12451,15510,0.027,551
2019-06-26T01:45:33,42.805,6.029,CST-1368DR,8898,12451,15510,0.027,551
2019-06-26T01:48:34,42.805,6.029,CST-1368DR,8898,12452,15511,0.027,551
2019-06-26T01:51:35,42.805,6.029,CST-1368DR,8898,12452,15511,0.027,551
2019-06-26T01:54:37,42.805,6.029,CST-1368DR,8898,12454,15513,0.026,551
2019-06-26T01:57:38,42.805,6.029,CST-1368DR,8898,12454,15513,0.026,551
2019-06-26T02:00:40,42.805,6.029,CST-1368DR,8898,12450,15509,0.028,550
2019-06-26T02:03:41,42.805,6.029,CST-1368DR,8898,12451,15510,0.027,550
2019-06-26T02:06:42,42.805,6.029,CST-1368DR,8898,12441,15497,0.031,551
2019-06-26T02:09:44,42.805,6.029,CST-1368DR,8898,12451,15510,0.027,551
2019-06-26T02:12:45,42.805,6.029,CST-1368DR,8897,12452,15512,0.027,550
2019-06-26T02:15:47,42.805,6.029,CST-1368DR,8897,12451,15511,0.027,551
2019-06-26T02:18:48,42.805,6.029,CST-1368DR,8897,12449,15509,0.028,551
2019-06-26T02:21:49,42.805,6.029,CST-1368DR,8897,12440,15498,0.030,551
2019-06-26T02:24:51,42.805,6.029,CST-1368DR,8897,12447,15506,0.028,551
2019-06-26T02:27:52,42.805,6.029,CST-1368DR,8897,12451,15511,0.027,551
2019-06-26T02:30:54,42.805,6.029,CST-1368DR,8897,12448,15507,0.028,551
2019-06-26T02:33:55,42.805,6.029,CST-1368DR,8897,12452,15513,0.026,551
2019-06-26T02:36:56,42.805,6.029,CST-1368DR,8897,12451,15511,0.027,550
2019-06-26T02:39:58,42.805,6.029,CST-1368DR,8897,12449,15509,0.028,551
2019-06-26T02:42:59,42.805,6.029,CST-1368DR,8897,12450,15510,0.027,551
2019-06-26T02:46:01,42.805,6.029,CST-1368DR,8897,12452,15512,0.027,551
2019-06-26T02:49:02,42.805,6.029,CST-1368DR,8897,12448,15507,0.028,551
2019-06-26T02:52:04,42.805,6.029,CST-1368DR,8897,12450,15509,0.028,550
2019-06-26T02:55:05,42.805,6.029,CST-1368DR,8897,12450,15510,0.027,551
2019-06-26T02:58:06,42.805,6.029,CST-1368DR,8897,12451,15511,0.027,551
2019-06-26T03:01:08,42.805,6.029,CST-1368DR,8897,12452,15512,0.027,551
2019-06-26T03:04:09,42.805,6.029,CST-1368DR,8897,12449,15509,0.028,550
2019-06-26T03:07:11,42.805,6.029,CST-1368DR,8897,12449,15509,0.028,551
2019-06-26T03:10:12,42.805,6.029,CST-1368DR,8897,12452,15512,0.027,551
2019-06-26T03:13:13,42.805,6.029,CST-1368DR,8897,12450,15510,0.027,551
2019-06-26T03:16:15,42.805,6.029,CST-1368DR,8897,12451,15512,0.027,551
2019-06-26T03:19:16,42.805,6.029,CST-1368DR,8897,12449,15508,0.028,551
2019-06-26T03:22:18,42.805,6.029,CST-1368DR,8897,12445,15503,0.029,550
2019-06-26T03:25:19,42.805,6.029,CST-1368DR,8897,12452,15512,0.027,551
2019-06-26T03:28:20,42.805,6.029,CST-1368DR,8897,12451,15511,0.027,551
2019-06-26T03:31:22,42.805,6.029,CST-1368DR,8897,12452,15512,0.027,551
2019-06-26T03:34:23,42.805,6.029,CST-1368DR,8897,12452,15512,0.027,551
2019-06-26T03:37:25,42.805,6.029,CST-1368DR,8897,12451,15511,0.027,551
2019-06-26T03:40:26,42.805,6.029,CST-1368DR,8897,12451,15511,0.027,551
2019-06-26T03:43:28,42.805,6.029,CST-1368DR,8897,12452,15512,0.027,550
2019-06-26T03:46:29,42.805,6.029,CST-1368DR,8897,12452,15512,0.027,551
2019-06-26T03:49:30,42.805,6.029,CST-1368DR,8896,12451,15513,0.026,551
2019-06-26T03:52:32,42.805,6.029,CST-1368DR,8896,12452,15513,0.026,551
2019-06-26T03:55:33,42.805,6.029,CST-1368DR,8896,12451,15512,0.027,551
2019-06-26T03:58:35,42.805,6.029,CST-1368DR,8896,12450,15511,0.027,551
2019-06-26T04:01:36,42.805,6.029,CST-1368DR,8896,12450,15511,0.027,550
2019-06-26T04:04:37,42.805,6.029,CST-1368DR,8896,12442,15502,0.029,550
2019-06-26T04:07:39,42.805,6.029,CST-1368DR,8896,12451,15512,0.027,551
2019-06-26T04:10:40,42.805,6.029,CST-1368DR,8896,12448,15508,0.028,550
2019-06-26T04:13:42,42.805,6.029,CST-1368DR,8896,12448,15509,0.028,551
2019-06-26T04:16:43,42.805,6.029,CST-1368DR,8896,12450,15511,0.027,551
2019-06-26T04:19:44,42.805,6.029,CST-1368DR,8896,12450,15512,0.027,551
2019-06-26T04:22:46,42.805,6.029,CST-1368DR,8896,12449,15510,0.027,551
2019-06-26T04:25:47,42.805,6.029,CST-1368DR,8896,12449,15511,0.027,551
2019-06-26T04:28:49,42.805,6.029,CST-1368DR,8896,12446,15506,0.028,550
2019-06-26T04:31:50,42.805,6.029,CST-1368DR,8896,12450,15512,0.027,551
2019-06-26T04:34:52,42.805,6.029,CST-1368DR,8896,12450,15511,0.027,551
2019-06-26T04:37:53,42.805,6.029,CST-1368DR,8896,12451,15513,0.026,551
2019-06-26T04:40:54,42.805,6.029,CST-1368DR,8896,12451,15513,0.026,551
2019-06-26T04:43:56,42.805,6.029,CST-1368DR,8896,12452,15513,0.026,551
2019-06-26T04:46:57,42.805,6.029,CST-1368DR,8896,12450,15512,0.027,550
2019-06-26T04:49:59,42.805,6.029,CST-1368DR,8896,12447,15507,0.028,551
2019-06-26T04:53:00,42.805,6.029,CST-1368DR,8896,12451,15512,0.027,551
2019-06-26T04:56:01,42.805,6.029,CST-1368DR,8896,12450,15512,0.027,551
2019-06-26T04:59:03,42.805,6.029,CST-1368DR,8896,12451,15512,0.027,551
2019-06-26T05:02:04,42.805,6.029,CST-1368DR,8896,12449,15511,0.027,550
2019-06-26T05:05:06,42.805,6.029,CST-1368DR,8896,12449,15510,0.027,551
2019-06-26T05:08:07,42.805,6.029,CST-1368DR,8896,12447,15507,0.028,550
2019-06-26T05:11:08,42.805,6.029,CST-1368DR,8896,12450,15511,0.027,551
2019-06-26T05:14:10,42.805,6.029,CST-1368DR,8895,12448,15510,0.027,551
2019-06-26T05:17:11,42.805,6.029,CST-1368DR,8896,12448,15509,0.028,551
2019-06-26T05:20:13,42.805,6.029,CST-1368DR,8896,12446,15507,0.028,551
2019-06-26T05:23:14,42.805,6.029,CST-1368DR,8896,12449,15510,0.027,551
2019-06-26T05:26:15,42.805,6.029,CST-1368DR,8895,12438,15498,0.030,551
2019-06-26T05:29:17,42.805,6.029,CST-1368DR,8895,12451,15514,0.026,550
2019-06-26T05:32:18,42.805,6.029,CST-1368DR,8896,12450,15512,0.027,551
2019-06-26T05:35:20,42.805,6.029,CST-1368DR,8896,12449,15510,0.027,551
2019-06-26T05:38:21,42.805,6.029,CST-1368DR,8895,12448,15511,0.027,551
2019-06-26T05:41:23,42.805,6.029,CST-1368DR,8895,12448,15510,0.027,551
2019-06-26T05:44:24,42.805,6.029,CST-1368DR,8895,12449,15512,0.027,551
2019-06-26T05:47:25,42.805,6.029,CST-1368DR,8895,12449,15512,0.027,551
2019-06-26T05:50:27,42.805,6.029,CST-1368DR,8895,12450,15513,0.026,551
2019-06-26T05:53:28,42.805,6.029,CST-1368DR,8895,12451,15514,0.026,551
2019-06-26T05:56:30,42.805,6.029,CST-1368DR,8895,12449,15512,0.027,550
2019-06-26T05:59:31,42.805,6.029,CST-1368DR,8895,12450,15513,0.026,550
2019-06-26T06:02:32,42.805,6.029,CST-1368DR,8895,12447,15510,0.027,551
2019-06-26T06:05:34,42.805,6.029,CST-1368DR,8895,12450,15513,0.026,550
2019-06-26T06:08:35,42.805,6.029,CST-1368DR,8895,12448,15511,0.027,551
2019-06-26T06:11:37,42.805,6.029,CST-1368DR,8895,12447,15509,0.028,551
2019-06-26T06:14:38,42.805,6.029,CST-1368DR,8895,12430,15489,0.033,551
2019-06-26T06:17:39,42.805,6.029,CST-1368DR,8895,12448,15510,0.027,551
2019-06-26T06:20:41,42.805,6.029,CST-1368DR,8895,12447,15510,0.027,551
2019-06-26T06:23:42,42.805,6.029,CST-1368DR,8895,12448,15511,0.027,550
2019-06-26T06:26:44,42.805,6.029,CST-1368DR,8895,12445,15507,0.028,551
2019-06-26T06:29:45,42.805,6.029,CST-1368DR,8895,12445,15507,0.028,551
2019-06-26T06:32:46,42.805,6.029,CST-1368DR,8895,12448,15511,0.027,551
2019-06-26T06:35:48,42.805,6.029,CST-1368DR,8895,12448,15511,0.027,551
2019-06-26T06:38:49,42.805,6.029,CST-1368DR,8895,12448,15510,0.027,551
2019-06-26T06:41:51,42.805,6.029,CST-1368DR,8895,12448,15510,0.027,551
2019-06-26T06:44:52,42.805,6.029,CST-1368DR,8895,12445,15507,0.028,551
2019-06-26T06:47:54,42.805,6.029,CST-1368DR,8895,12448,15510,0.027,551
2019-06-26T06:50:55,42.805,6.029,CST-1368DR,8895,12447,15510,0.027,551
2019-06-26T06:53:56,42.805,6.029,CST-1368DR,8895,12448,15511,0.027,551
2019-06-26T06:56:58,42.805,6.029,CST-1368DR,8895,12448,15511,0.027,551
2019-06-26T06:59:59,42.805,6.029,CST-1368DR,8895,12447,15510,0.027,551
2019-06-26T07:03:01,42.805,6.029,CST-1368DR,8895,12449,15512,0.027,550
2019-06-26T07:06:02,42.805,6.029,CST-1368DR,8895,12444,15506,0.028,551
2019-06-26T07:09:03,42.805,6.029,CST-1368DR,8895,12446,15508,0.028,551
2019-06-26T07:12:05,42.805,6.029,CST-1368DR,8895,12448,15510,0.027,551
2019-06-26T07:15:06,42.805,6.029,CST-1368DR,8895,12448,15510,0.027,550
2019-06-26T07:18:08,42.805,6.029,CST-1368DR,8895,12448,15510,0.027,551
2019-06-26T07:21:09,42.805,6.029,CST-1368DR,8895,12445,15507,0.028,551
2019-06-26T07:24:10,42.805,6.029,CST-1368DR,8895,12447,15509,0.028,551
2019-06-26T07:27:12,42.805,6.029,CST-1368DR,8895,12447,15509,0.028,551
2019-06-26T07:30:13,42.805,6.029,CST-1368DR,8895,12448,15510,0.027,551
2019-06-26T07:33:15,42.805,6.029,CST-1368DR,8895,12448,15511,0.027,551
2019-06-26T07:36:16,42.805,6.029,CST-1368DR,8894,12425,15484,0.034,551
2019-06-26T07:39:17,42.805,6.029,CST-1368DR,8895,12449,15511,0.027,551
2019-06-26T07:42:19,42.805,6.029,CST-1368DR,8895,12449,15512,0.027,551
2019-06-26T07:45:20,42.805,6.029,CST-1368DR,8894,12447,15511,0.027,551
2019-06-26T07:48:22,42.805,6.029,CST-1368DR,8894,12449,15513,0.026,551
2019-06-26T07:51:23,42.805,6.029,CST-1368DR,8894,12448,15512,0.027,551
2019-06-26T07:54:25,42.805,6.029,CST-1368DR,8894,12448,15513,0.026,551
2019-06-26T07:57:26,42.805,6.029,CST-1368DR,8894,12443,15506,0.028,550
2019-06-26T08:00:27,42.805,6.029,CST-1368DR,8894,12447,15511,0.027,551
2019-06-26T08:03:29,42.805,6.029,CST-1368DR,8894,12446,15509,0.028,551
2019-06-26T08:06:30,42.805,6.029,CST-1368DR,8894,12447,15511,0.027,550
2019-06-26T08:09:32,42.805,6.029,CST-1368DR,8894,12447,15511,0.027,551
2019-06-26T08:12:33,42.805,6.029,CST-1368DR,8894,12444,15508,0.028,551
2019-06-26T08:15:34,42.805,6.029,CST-1368DR,8894,12446,15509,0.028,551
2019-06-26T08:18:36,42.805,6.029,CST-1368DR,8894,12442,15505,0.029,551
2019-06-26T08:21:37,42.805,6.029,CST-1368DR,8894,12445,15508,0.028,551
2019-06-26T08:24:39,42.805,6.029,CST-1368DR,8894,12446,15509,0.028,551
2019-06-26T08:27:40,42.805,6.029,CST-1368DR,8894,12443,15505,0.029,551
2019-06-26T08:30:41,42.805,6.029,CST-1368DR,8894,12443,15506,0.028,551
2019-06-26T08:33:43,42.805,6.029,CST-1368DR,8894,12446,15509,0.028,551
2019-06-26T08:36:44,42.805,6.029,CST-1368DR,8894,12447,15510,0.027,550
2019-06-26T08:39:46,42.805,6.029,CST-1368DR,8894,12444,15507,0.028,551
2019-06-26T08:42:47,42.805,6.029,CST-1368DR,8894,12447,15511,0.027,551
2019-06-26T08:45:48,42.805,6.029,CST-1368DR,8894,12448,15512,0.027,551
2019-06-26T08:48:50,42.805,6.029,CST-1368DR,8894,12445,15508,0.028,551
2019-06-26T08:51:51,42.805,6.029,CST-1368DR,8894,12447,15510,0.027,550
2019-06-26T08:54:53,42.805,6.029,CST-1368DR,8894,12446,15509,0.028,551
2019-06-26T08:57:54,42.805,6.029,CST-1368DR,8894,12445,15509,0.028,551
2019-06-26T09:00:56,42.805,6.029,CST-1368DR,8894,12442,15505,0.029,551
2019-06-26T09:03:57,42.805,6.029,CST-1368DR,8894,12447,15510,0.027,551
2019-06-26T09:06:58,42.805,6.029,CST-1368DR,8894,12447,15511,0.027,551
2019-06-26T09:10:00,42.805,6.029,CST-1368DR,8894,12443,15506,0.028,551
2019-06-26T09:13:01,42.805,6.029,CST-1368DR,8894,12444,15507,0.028,551
2019-06-26T09:16:03,42.805,6.029,CST-1368DR,8894,12444,15508,0.028,551
2019-06-26T09:19:04,42.805,6.029,CST-1368DR,8894,12446,15510,0.027,551
2019-06-26T09:22:05,42.805,6.029,CST-1368DR,8894,12444,15508,0.028,551
2019-06-26T09:25:07,42.805,6.029,CST-1368DR,8893,12441,15505,0.029,551
2019-06-26T09:28:08,42.805,6.029,CST-1368DR,8893,12446,15511,0.027,551
2019-06-26T09:31:10,42.805,6.029,CST-1368DR,8893,12443,15507,0.028,551
2019-06-26T09:34:11,42.805,6.029,CST-1368DR,8894,12448,15512,0.027,551
2019-06-26T09:37:12,42.805,6.029,CST-1368DR,8893,12445,15510,0.027,550
2019-06-26T09:40:14,42.805,6.029,CST-1368DR,8894,12447,15510,0.027,550
2019-06-26T09:43:15,42.805,6.029,CST-1368DR,8893,12444,15509,0.028,551
2019-06-26T09:46:17,42.805,6.029,CST-1368DR,8893,12444,15509,0.028,551
2019-06-26T09:49:18,42.805,6.029,CST-1368DR,8893,12444,15509,0.028,550
2019-06-26T09:52:20,42.805,6.029,CST-1368DR,8893,12445,15510,0.027,551
2019-06-26T09:55:21,42.805,6.029,CST-1368DR,8893,12445,15510,0.027,551
2019-06-26T09:58:22,42.805,6.029,CST-1368DR,8893,12437,15500,0.030,551
2019-06-26T10:01:24,42.805,6.029,CST-1368DR,8893,12444,15509,0.028,551
2019-06-26T10:04:25,42.805,6.029,CST-1368DR,8893,12439,15502,0.029,551
2019-06-26T10:07:27,42.805,6.029,CST-1368DR,8893,12445,15510,0.027,551
2019-06-26T10:10:28,42.805,6.029,CST-1368DR,8893,12445,15510,0.027,551
2019-06-26T10:13:29,42.805,6.029,CST-1368DR,8893,12445,15510,0.027,551
2019-06-26T10:16:31,42.805,6.029,CST-1368DR,8893,12443,15507,0.028,551
2019-06-26T10:19:32,42.805,6.029,CST-1368DR,8893,12444,15509,0.028,551
2019-06-26T10:22:34,42.805,6.029,CST-1368DR,8893,12443,15507,0.028,551
2019-06-26T10:25:35,42.805,6.029,CST-1368DR,8893,12444,15509,0.028,551
2019-06-26T10:28:36,42.805,6.029,CST-1368DR,8893,12445,15510,0.027,551
2019-06-26T10:31:38,42.805,6.029,CST-1368DR,8893,12442,15506,0.028,551
2019-06-26T10:34:39,42.805,6.029,CST-1368DR,8893,12444,15509,0.028,551
2019-06-26T10:37:41,42.805,6.029,CST-1368DR,8893,12443,15508,0.028,551
2019-06-26T10:40:42,42.805,6.029,CST-1368DR,8893,12443,15508,0.028,551
2019-06-26T10:43:43,42.805,6.029,CST-1368DR,8893,12442,15506,0.028,551
2019-06-26T10:46:45,42.805,6.029,CST-1368DR,8893,12444,15508,0.028,550
2019-06-26T10:49:46,42.805,6.029,CST-1368DR,8893,12445,15510,0.027,551
2019-06-26T10:52:48,42.805,6.029,CST-1368DR,8893,12443,15507,0.028,551
2019-06-26T10:55:49,42.805,6.029,CST-1368DR,8893,12445,15510,0.027,551
2019-06-26T10:58:51,42.805,6.029,CST-1368DR,8893,12444,15509,0.028,551
2019-06-26T11:01:52,42.805,6.029,CST-1368DR,8892,12444,15510,0.027,551
2019-06-26T11:04:53,42.805,6.029,CST-1368DR,8892,12443,15510,0.027,551
2019-06-26T11:07:55,42.805,6.029,CST-1368DR,8892,12442,15508,0.028,551
2019-06-26T11:10:56,42.805,6.029,CST-1368DR,8892,12442,15508,0.028,550
2019-06-26T11:13:58,42.805,6.029,CST-1368DR,8892,12432,15495,0.031,551
2019-06-26T11:16:59,42.805,6.029,CST-1368DR,8892,12444,15510,0.027,551
2019-06-26T11:20:00,42.805,6.029,CST-1368DR,8892,12440,15505,0.029,551
2019-06-26T11:23:02,42.805,6.029,CST-1368DR,8892,12444,15510,0.027,551
2019-06-26T11:26:03,42.805,6.029,CST-1368DR,8892,12444,15510,0.027,551
2019-06-26T11:29:05,42.805,6.029,CST-1368DR,8892,12439,15505,0.029,551
2019-06-26T11:32:06,42.805,6.029,CST-1368DR,8892,12441,15507,0.028,551
2019-06-26T11:35:07,42.805,6.029,CST-1368DR,8892,12442,15508,0.028,551
2019-06-26T11:38:09,42.805,6.029,CST-1368DR,8892,12442,15508,0.028,551
2019-06-26T11:41:10,42.805,6.029,CST-1368DR,8892,12443,15509,0.028,551
2019-06-26T11:44:12,42.805,6.029,CST-1368DR,8892,12444,15510,0.027,551
2019-06-26T11:47:13,42.805,6.029,CST-1368DR,8892,12443,15509,0.028,551
2019-06-26T11:50:14,42.805,6.029,CST-1368DR,8892,12441,15506,0.028,551
2019-06-26T11:53:16,42.805,6.029,CST-1368DR,8892,12441,15507,0.028,550
2019-06-26T11:56:17,42.805,6.029,CST-1368DR,8892,12441,15507,0.028,550
2019-06-26T11:59:19,42.805,6.029,CST-1368DR,8892,12440,15506,0.028,551
2019-06-26T12:02:20,42.805,6.029,CST-1368DR,8892,12442,15508,0.028,551
2019-06-26T12:05:22,42.805,6.029,CST-1368DR,8892,12438,15503,0.029,551
2019-06-26T12:08:23,42.805,6.029,CST-1368DR,8892,12441,15507,0.028,550
2019-06-26T12:11:24,42.805,6.029,CST-1368DR,8891,12437,15503,0.029,551
2019-06-26T12:14:26,42.805,6.029,CST-1368DR,8891,12443,15511,0.027,551
2019-06-26T12:17:27,42.805,6.029,CST-1368DR,8891,12442,15509,0.028,551
2019-06-26T12:20:29,42.805,6.029,CST-1368DR,8891,12444,15511,0.027,550
2019-06-26T12:23:30,42.805,6.029,CST-1368DR,8891,12444,15511,0.027,551
2019-06-26T12:26:31,42.805,6.029,CST-1368DR,8891,12442,15509,0.028,551
2019-06-26T12:29:33,42.805,6.029,CST-1368DR,8891,12442,15510,0.027,551
2019-06-26T12:32:34,42.805,6.029,CST-1368DR,8891,12439,15505,0.029,551
2019-06-26T12:35:36,42.805,6.029,CST-1368DR,8891,12439,15506,0.028,551
2019-06-26T12:38:37,42.805,6.029,CST-1368DR,8891,12441,15508,0.028,551
2019-06-26T12:41:38,42.805,6.029,CST-1368DR,8891,12440,15507,0.028,551
2019-06-26T12:44:40,42.805,6.029,CST-1368DR,8891,12441,15508,0.028,551
2019-06-26T12:47:41,42.805,6.029,CST-1368DR,8891,12442,15510,0.027,551
2019-06-26T12:50:43,42.805,6.029,CST-1368DR,8891,12441,15508,0.028,551
2019-06-26T12:53:44,42.805,6.029,CST-1368DR,8891,12439,15506,0.028,550
2019-06-26T12:56:45,42.805,6.029,CST-1368DR,8891,12443,15511,0.027,551
2019-06-26T12:59:47,42.805,6.029,CST-1368DR,8891,12442,15510,0.027,551
2019-06-26T13:02:48,42.805,6.029,CST-1368DR,8891,12442,15509,0.028,551
2019-06-26T13:05:50,42.805,6.029,CST-1368DR,8891,12442,15510,0.027,550
2019-06-26T13:08:51,42.805,6.029,CST-1368DR,8891,12443,15510,0.027,551
2019-06-26T13:11:53,42.805,6.029,CST-1368DR,8891,12441,15508,0.028,551
2019-06-26T13:14:54,42.805,6.029,CST-1368DR,8891,12441,15509,0.028,550
2019-06-26T13:20:07,42.805,6.029,CST-1368DR,8891,12443,15511,0.027,551
2019-06-26T13:23:09,42.805,6.029,CST-1368DR,8891,12443,15510,0.027,551
2019-06-26T13:26:10,42.805,6.029,CST-1368DR,8891,12442,15510,0.027,551
2019-06-26T13:29:12,42.805,6.029,CST-1368DR,8891,12436,15502,0.029,551
2019-06-26T13:32:13,42.805,6.029,CST-1368DR,8891,12443,15511,0.027,550
2019-06-26T13:35:14,42.805,6.029,CST-1368DR,8891,12442,15509,0.028,550
2019-06-26T13:38:16,42.805,6.029,CST-1368DR,8891,12442,15509,0.028,551
2019-06-26T13:41:17,42.805,6.029,CST-1368DR,8891,12442,15510,0.027,551
2019-06-26T13:44:19,42.805,6.029,CST-1368DR,8891,12439,15506,0.028,551
2019-06-26T13:47:20,42.805,6.029,CST-1368DR,8891,12443,15510,0.027,550
2019-06-26T13:50:21,42.805,6.029,CST-1368DR,8890,12439,15508,0.028,551
2019-06-26T13:53:23,42.805,6.029,CST-1368DR,8890,12438,15506,0.028,550
2019-06-26T13:56:24,42.805,6.029,CST-1368DR,8890,12441,15509,0.028,551
2019-06-26T13:59:26,42.805,6.029,CST-1368DR,8890,12438,15506,0.028,550
2019-06-26T14:02:27,42.805,6.029,CST-1368DR,8890,12442,15511,0.027,550
2019-06-26T14:05:28,42.805,6.029,CST-1368DR,8890,12439,15507,0.028,551
2019-06-26T14:08:30,42.805,6.029,CST-1368DR,8890,12439,15507,0.028,551
2019-06-26T14:11:31,42.805,6.029,CST-1368DR,8890,12438,15507,0.028,551
2019-06-26T14:14:33,42.805,6.029,CST-1368DR,8890,12442,15511,0.027,551
2019-06-26T14:17:34,42.805,6.029,CST-1368DR,8890,12438,15507,0.028,551
2019-06-26T14:20:35,42.805,6.029,CST-1368DR,8890,12440,15508,0.028,551
2019-06-26T14:23:37,42.805,6.029,CST-1368DR,8891,12441,15508,0.028,551
2019-06-26T14:26:38,42.805,6.029,CST-1368DR,8890,12442,15511,0.027,551
2019-06-26T14:29:40,42.805,6.029,CST-1368DR,8890,12443,15512,0.027,550
2019-06-26T14:32:41,42.805,6.029,CST-1368DR,8890,12440,15509,0.028,550
2019-06-26T14:35:43,42.805,6.029,CST-1368DR,8890,12440,15509,0.028,551
2019-06-26T14:38:44,42.805,6.029,CST-1368DR,8891,12442,15510,0.027,551
2019-06-26T14:41:45,42.805,6.029,CST-1368DR,8891,12440,15507,0.028,551
2019-06-26T14:44:47,42.805,6.029,CST-1368DR,8890,12443,15513,0.026,551
2019-06-26T14:47:48,42.805,6.029,CST-1368DR,8891,12441,15509,0.028,551
2019-06-26T14:50:50,42.805,6.029,CST-1368DR,8890,12441,15510,0.027,551
2019-06-26T14:53:51,42.805,6.029,CST-1368DR,8890,12439,15508,0.028,551
2019-06-26T14:56:52,42.805,6.029,CST-1368DR,8890,12439,15508,0.028,551
2019-06-26T14:59:54,42.805,6.029,CST-1368DR,8890,12439,15508,0.028,551
2019-06-26T15:02:55,42.805,6.029,CST-1368DR,8890,12440,15509,0.028,551
2019-06-26T15:05:57,42.805,6.029,CST-1368DR,8890,12432,15499,0.030,551
2019-06-26T15:08:58,42.805,6.029,CST-1368DR,8890,12444,15513,0.026,551
2019-06-26T15:11:59,42.805,6.029,CST-1368DR,8890,12440,15509,0.028,551
2019-06-26T15:15:01,42.805,6.029,CST-1368DR,8890,12438,15506,0.028,551
2019-06-26T15:18:02,42.805,6.029,CST-1368DR,8890,12439,15507,0.028,551
2019-06-26T15:21:04,42.805,6.029,CST-1368DR,8890,12443,15512,0.027,551
2019-06-26T15:24:05,42.805,6.029,CST-1368DR,8890,12442,15511,0.027,551
2019-06-26T15:27:06,42.805,6.029,CST-1368DR,8890,12439,15508,0.028,551
2019-06-26T15:30:08,42.805,6.029,CST-1368DR,8890,12439,15508,0.028,551
2019-06-26T15:33:09,42.805,6.029,CST-1368DR,8890,12442,15512,0.027,550
2019-06-26T15:36:11,42.805,6.029,CST-1368DR,8890,12442,15511,0.027,551
2019-06-26T15:39:12,42.805,6.029,CST-1368DR,8890,12443,15512,0.027,551
2019-06-26T15:42:14,42.805,6.029,CST-1368DR,8890,12442,15511,0.027,550
2019-06-26T15:45:15,42.805,6.029,CST-1368DR,8890,12441,15510,0.027,551
2019-06-26T15:48:16,42.805,6.029,CST-1368DR,8890,12441,15509,0.028,551
2019-06-26T15:51:18,42.805,6.029,CST-1368DR,8890,12443,15513,0.026,551
2019-06-26T15:54:19,42.805,6.029,CST-1368DR,8890,12441,15510,0.027,551
2019-06-26T15:57:21,42.805,6.029,CST-1368DR,8890,12440,15509,0.028,551
2019-06-26T16:00:22,42.805,6.029,CST-1368DR,8890,12444,15513,0.026,550
2019-06-26T16:03:23,42.805,6.029,CST-1368DR,8890,12442,15511,0.027,551
2019-06-26T16:06:25,42.805,6.029,CST-1368DR,8890,12442,15511,0.027,551
2019-06-26T16:09:26,42.805,6.029,CST-1368DR,8890,12443,15512,0.027,551
2019-06-26T16:12:28,42.805,6.029,CST-1368DR,8890,12439,15508,0.028,550
2019-06-26T16:15:29,42.805,6.029,CST-1368DR,8890,12437,15505,0.029,551
2019-06-26T16:18:30,42.805,6.029,CST-1368DR,8890,12439,15507,0.028,551
2019-06-26T16:21:32,42.805,6.029,CST-1368DR,8890,12440,15509,0.028,550
2019-06-26T16:24:33,42.805,6.029,CST-1368DR,8890,12441,15510,0.027,551
2019-06-26T16:27:35,42.805,6.029,CST-1368DR,8890,12438,15506,0.028,551
2019-06-26T16:30:36,42.805,6.029,CST-1368DR,8890,12442,15511,0.027,551
2019-06-26T16:33:38,42.805,6.029,CST-1368DR,8890,12442,15511,0.027,550
2019-06-26T16:36:39,42.805,6.029,CST-1368DR,8890,12440,15508,0.028,551
2019-06-26T16:39:40,42.805,6.029,CST-1368DR,8889,12439,15509,0.028,551